Location: Brno
(49.2000°N, 16.6330°E)
Time: 15:54:37
(UTC+02:00)

Explorer 7 - All Passes

Search period start: 04 August 2021 00:00
Search period end: 14 August 2021 00:00
Orbit: 484 x 676 km, 50.3° (Epoch: 04 August)

Date Brightness Start Highest point End Pass type
(mag) Time Alt. Az. Time Alt. Az. Time Alt. Az.
04 Aug - 04:12:14 10° S 04:14:52 18° SE 04:17:34 10° E visible
04 Aug - 05:51:01 10° WSW 05:54:46 66° SSE 05:58:43 10° ENE daylight
04 Aug - 07:31:23 10° W 07:35:16 74° N 07:39:23 10° E daylight
04 Aug - 09:11:49 10° WNW 09:15:48 74° SSW 09:20:03 10° ESE daylight
04 Aug - 10:52:33 10° W 10:55:55 24° SW 10:59:26 10° SSE daylight
05 Aug - 04:15:47 10° SSW 04:18:59 27° SE 04:22:15 10° E visible
05 Aug - 05:55:16 10° WSW 05:59:04 84° SSE 06:03:03 10° ENE daylight
05 Aug - 07:35:44 10° W 07:39:37 76° N 07:43:44 10° E daylight
05 Aug - 09:16:09 10° WNW 09:20:04 57° SSW 09:24:15 10° SE daylight
05 Aug - 10:57:20 10° W 11:00:01 17° SW 11:02:47 10° S daylight
06 Aug - 04:19:38 10° SW 04:23:08 38° SSE 04:26:44 10° E visible
06 Aug - 05:59:35 10° W 06:03:24 83° N 06:07:23 10° ENE daylight
06 Aug - 07:40:04 10° WNW 07:43:59 83° NNE 07:48:05 10° E daylight
06 Aug - 09:20:31 10° W 09:24:19 42° SSW 09:28:19 10° SE daylight
06 Aug - 11:03:00 10° WSW 11:04:04 11° SW 11:05:09 10° SSW daylight
07 Aug - 02:45:45 10° SSE 02:47:35 13° SE 02:49:26 10° ESE visible
07 Aug - 04:23:42 10° SW 04:27:20 53° SSE 04:31:07 10° ENE visible
07 Aug - 06:03:56 10° W 06:07:44 76° N 06:11:43 10° E daylight
07 Aug - 07:44:24 10° WNW 07:48:18 85° SSW 07:52:26 10° ESE daylight
07 Aug - 09:24:58 10° W 09:28:30 30° SSW 09:32:13 10° SSE daylight
08 Aug - 02:48:53 10° S 02:51:39 20° SE 02:54:27 10° E visible
08 Aug - 04:27:52 10° WSW 04:31:36 70° SSE 04:35:27 10° ENE visible
08 Aug - 06:08:17 10° W 06:12:06 74° N 06:16:05 10° E daylight
08 Aug - 07:48:43 10° WNW 07:52:36 69° SSW 07:56:41 10° ESE daylight
08 Aug - 09:29:34 10° W 09:32:39 21° SW 09:35:51 10° SSE daylight
09 Aug - 02:52:31 10° SSW 02:55:46 29° SSE 02:59:04 10° E visible
09 Aug - 04:32:09 10° WSW 04:35:54 87° S 04:39:47 10° ENE visible
09 Aug - 06:12:38 10° W 06:16:27 77° N 06:20:26 10° E daylight
09 Aug - 07:53:03 10° WNW 07:56:52 52° SSW 08:00:52 10° SE daylight
09 Aug - 09:34:30 10° WSW 09:36:44 14° SW 09:39:01 10° S daylight
10 Aug - 02:56:25 10° SW 02:59:57 41° SSE 03:03:32 10° E visible
10 Aug - 04:36:28 10° W 04:40:14 81° NNW 04:44:07 10° E visible
10 Aug - 06:16:58 10° WNW 06:20:48 85° NNE 06:24:47 10° E daylight
10 Aug - 07:57:27 10° W 08:01:05 38° SSW 08:04:53 10° SE daylight
11 Aug - 01:22:13 10° S 01:24:21 15° SE 01:26:29 10° ESE visible
11 Aug - 03:00:30 10° SW 03:04:10 56° SSE 03:07:54 10° ENE visible
11 Aug - 04:40:50 10° W 04:44:35 75° N 04:48:27 10° E visible
11 Aug - 06:21:17 10° WNW 06:25:07 81° SSW 06:29:06 10° ESE daylight
11 Aug - 08:01:55 10° W 08:05:15 27° SW 08:08:43 10° SSE daylight
12 Aug - 01:25:30 10° SSW 01:28:26 22° SE 01:31:22 10° E visible
12 Aug - 03:04:42 10° WSW 03:08:26 74° SSE 03:12:14 10° ENE visible
12 Aug - 04:45:10 10° W 04:48:56 74° N 04:52:49 10° E visible
12 Aug - 06:25:37 10° WNW 06:29:24 64° SSW 06:33:21 10° ESE daylight
12 Aug - 08:06:36 10° W 08:09:23 19° SW 08:12:15 10° S daylight
13 Aug - 01:29:13 10° SSW 01:32:34 31° SSE 01:35:55 10° E visible
13 Aug - 03:08:59 10° WSW 03:12:45 90° NNW 03:16:33 10° ENE visible
13 Aug - 04:49:31 10° W 04:53:17 78° N 04:57:10 10° E visible
13 Aug - 06:29:58 10° W 06:33:39 47° SSW 06:37:29 10° SE daylight
13 Aug - 08:11:47 10° WSW 08:13:27 12° SW 08:15:09 10° SSW daylight
13 Aug - 23:56:18 10° SSE 23:57:04 10° SE 23:57:49 10° ESE night (unlit)
